Wind_Speed
58 58 58 58 58 58 58 57 57 57 55 55 54 53 52 51 51 50 49 48 48 48 47 48 49 50 51 52 51 51 50 49 49 49 49 49 47 45 45 45 45 45
56 56 56 56 56 57 57 57 58 58 58 57 56 55 53 52 50 49 49 49 49 49 48 48 49 50 51 52 53 52 52 51 50 50 50 50 49 47 46 46 46 46
55 55 54 55 55 56 57 58 59 60 59 59 58 57 55 52 51 50 49 49 49 49 49 49 49 50 51 52 53 54 54 53 52 52 51 51 50 48 48 47 47 47
55 55 55 56 57 58 58 59 60 60 60 59 58 56 53 52 51 51 50 50 50 49 49 49 50 50 51 52 54 55 55 55 54 54 53 53 52 50 49 48 48 48
56 56 57 57 58 59 59 59 60 61 60 59 58 56 54 52 53 53 52 50 49 49 49 50 50 51 51 53 54 55 56 56 56 55 54 54 53 52 50 49 48 48
57 57 58 59 59 60 61 61 61 62 61 60 59 58 57 55 54 53 53 51 50 49 49 50 50 51 52 53 54 55 56 57 57 57 56 55 54 54 52 50 49 49
59 59 60 60 61 62 62 62 62 62 61 61 60 59 59 58 55 54 52 51 50 50 50 50 50 51 52 53 54 55 56 57 58 58 57 56 55 55 53 51 50 50
59 60 60 61 61 62 62 62 62 61 61 61 61 61 61 60 59 56 53 51 50 50 51 51 51 51 52 53 54 55 56 57 58 58 58 58 57 56 55 53 51 51
59 58 58 59 59 60 61 61 61 61 61 61 62 63 63 63 62 59 55 54 53 52 52 52 52 52 52 53 54 55 57 57 58 58 59 59 58 57 56 54 53 52
58 58 58 58 58 59 59 60 60 61 62 63 64 65 65 65 63 60 58 57 56 55 54 53 53 53 53 54 55 55 57 58 58 59 59 59 59 59 57 56 54 53
58 58 58 58 58 59 59 60 60 61 63 64 64 65 64 63 62 61 61 61 60 57 56 55 55 55 55 55 56 56 57 58 58 59 59 59 60 59 59 58 56 54
59 59 59 59 60 60 60 61 61 62 63 63 63 63 63 63 63 63 64 64 63 61 58 57 57 57 57 57 57 57 58 58 59 59 59 59 60 60 59 59 58 56
59 59 59 60 61 61 61 61 62 62 63 63 64 64 64 65 65 66 66 66 65 63 61 59 59 58 59 59 58 59 59 60 60 60 60 60 60 60 60 60 59 58
60 60 60 61 61 62 62 62 62 62 63 64 65 65 66 66 67 67 67 67 65 64 63 62 61 60 60 60 60 60 60 61 61 62 62 61 61 61 61 61 61 60
62 62 63 63 62 62 62 62 62 62 63 63 64 65 66 67 68 68 68 68 66 65 64 62 61 61 61 61 61 62 62 62 62 63 63 63 63 63 63 62 62 62
65 65 65 64 63 62 61 61 61 62 63 63 64 65 66 67 68 69 69 69 67 66 64 63 62 62 62 62 62 63 63 63 64 64 64 64 64 65 65 64 64 64
67 67 66 65 63 62 61 61 61 62 63 64 65 66 67 68 69 69 69 69 69 68 66 65 64 64 63 63 63 63 64 65 65 66 66 66 66 66 66 66 66 65
66 65 64 64 63 62 62 62 62 63 64 65 66 67 68 68 68 69 69 69 69 69 68 68 67 66 66 65 65 65 65 66 67 67 67 68 68 68 67 68 68 67
63 63 62 62 62 62 62 63 63 64 65 66 67 67 68 68 69 69 69 70 70 70 70 70 70 69 69 69 68 68 68 68 68 69 69 70 70 70 70 69 69 69
61 61 60 60 60 61 61 62 63 65 66 66 67 67 68 68 69 69 70 70 70 71 71 71 71 72 72 72 72 72 72 72 71 71 72 72 72 72 72 72 71 71
61 61 61 61 62 62 62 63 64 65 66 66 67 68 69 69 70 70 71 71 72 72 72 73 73 74 74 75 75 75 76 76 75 75 75 75 75 75 75 75 75 74
63 64 64 64 64 64 64 65 65 66 67 67 68 68 69 70 71 72 73 73 74 74 75 75 76 76 77 78 78 79 79 79 79 78 78 78 77 77 77 77 77 76
65 65 65 65 64 64 64 65 66 66 67 67 68 69 71 72 73 74 75 76 76 77 77 78 79 79 80 80 81 81 81 81 81 80 80 80 79 78 78 77 77 77
65 64 64 63 63 63 64 65 66 67 68 69 70 71 72 73 74 75 76 77 78 79 80 80 81 81 81 81 82 82 83 82 82 81 81 80 80 79 78 78 77 77
63 63 62 63 63 63 64 65 67 68 69 70 71 73 73 74 75 77 78 79 80 80 81 81 81 81 81 82 82 82 83 82 82 81 80 79 79 78 77 77 76 76
61 61 62 62 63 64 65 67 68 70 71 72 73 74 75 76 77 78 78 79 80 80 80 80 81 80 80 80 80 79 79 79 79 78 77 76 76 75 75 74 73 73
Wind_Direction
282 282 283 284 284 284 284 286 287 288 288 289 288 286 286 286 287 287 287 286 285 283 282 281 278 277 275 274 273 272 271 271 272 273 274 274 274 274 275 275 274 275
282 283 284 285 285 285 286 287 287 288 288 289 288 286 285 285 286 286 286 286 286 285 284 282 279 277 275 274 273 272 272 271 272 272 273 274 275 275 275 275 275 274
282 283 284 285 285 285 286 286 287 287 288 287 287 286 285 284 285 286 286 286 285 285 284 282 280 278 276 275 274 273 273 272 272 272 273 274 275 276 276 276 275 274
283 283 284 284 284 284 285 285 286 286 286 286 286 285 284 285 285 286 286 286 285 284 283 282 280 278 276 274 273 273 273 273 272 273 273 274 275 275 275 275 275 275
283 283 283 284 284 284 284 284 285 285 285 286 286 285 285 286 288 287 286 285 284 284 283 282 280 278 276 274 273 273 272 272 272 272 273 273 274 274 274 275 275 275
282 282 283 283 284 284 284 284 284 285 285 286 286 286 286 288 289 289 288 285 284 283 283 282 281 279 277 275 274 273 272 273 273 273 272 273 273 273 274 274 274 275
282 282 283 283 283 283 283 284 284 284 285 286 286 287 288 289 289 289 287 286 285 284 283 282 281 280 278 276 275 273 272 272 273 273 273 273 273 273 273 274 274 275
282 282 282 282 282 282 282 282 282 283 284 286 287 288 288 289 290 290 287 285 286 285 284 283 282 280 278 277 275 274 273 273 273 273 273 273 273 273 274 274 274 274
281 281 281 282 282 282 282 282 282 283 284 285 286 287 288 290 290 290 288 287 287 286 284 284 283 281 279 277 276 275 274 273 273 273 273 273 273 273 273 273 274 274
281 281 282 282 282 282 283 283 284 284 284 285 286 286 287 289 289 289 288 289 289 288 286 284 284 282 280 279 277 275 274 274 273 273 273 273 274 274 274 273 273 274
280 281 282 282 282 282 282 283 284 284 284 284 285 286 286 287 288 288 289 289 289 288 286 285 285 284 282 280 278 276 275 274 273 273 273 273 274 274 274 274 274 274
280 281 281 282 282 282 282 283 284 284 284 284 284 285 285 286 286 287 288 289 288 288 286 285 284 284 283 281 279 277 276 275 274 273 273 273 273 273 274 274 274 273
280 281 283 284 284 284 284 284 284 283 283 283 284 284 284 285 285 286 287 287 287 287 286 285 284 284 283 281 279 278 277 275 274 273 272 272 272 272 272 273 273 272
280 282 284 285 286 286 285 284 284 283 283 283 284 284 284 284 285 285 285 286 286 286 286 285 284 283 282 281 280 278 277 276 275 274 273 272 271 271 270 271 271 271
282 283 285 286 287 286 285 285 284 284 284 283 283 283 283 284 284 284 285 285 286 286 285 285 284 283 282 281 280 279 277 276 275 274 273 272 271 271 270 269 269 269
284 285 286 287 286 285 285 284 284 283 283 282 282 282 282 282 283 284 285 286 286 286 285 284 283 282 282 281 280 279 278 277 275 274 273 272 271 270 270 269 268 268
285 286 287 287 286 285 284 283 283 282 282 281 281 282 282 282 284 285 286 286 286 286 286 285 284 282 281 280 279 278 277 276 275 274 273 272 271 270 270 269 268 267
285 286 287 287 286 285 284 283 283 282 282 282 282 283 283 284 285 286 286 286 286 287 286 285 284 283 282 280 279 278 276 275 274 273 272 272 271 270 269 268 268 267
285 286 286 286 286 286 285 284 284 283 283 283 284 284 285 285 286 286 286 286 286 286 286 285 285 284 283 281 280 278 277 275 274 273 272 271 270 269 268 267 266 266
286 286 286 287 286 286 285 284 284 284 284 285 285 285 286 286 286 287 287 287 287 286 286 285 285 284 283 282 281 279 278 276 274 273 271 270 270 269 268 267 266 265
286 286 286 286 286 285 285 284 284 285 285 286 286 286 287 287 288 288 288 288 288 287 287 286 285 285 284 283 282 280 279 277 276 274 272 271 269 268 267 267 266 265
286 286 286 286 286 286 285 285 286 286 286 287 287 288 288 289 290 290 290 289 289 288 288 287 286 285 284 283 282 281 280 279 277 276 274 273 271 269 267 266 265 265
286 286 286 287 286 286 286 286 287 287 288 288 289 289 290 290 291 291 290 290 290 289 288 288 287 286 285 285 284 283 282 280 279 278 276 274 273 270 268 267 265 264
287 286 286 287 287 287 287 288 288 289 289 290 291 291 291 291 291 291 291 290 290 290 289 289 288 288 287 287 286 285 284 282 281 279 277 276 274 272 269 267 265 264
286 287 287 287 288 288 289 290 290 291 291 292 292 292 292 292 292 292 291 291 291 291 291 290 290 289 289 288 287 286 285 284 282 281 279 277 275 273 271 268 266 264
287 287 288 289 289 290 291 291 292 292 293 293 293 293 293 293 292 292 292 292 292 292 292 292 291 291 290 289 288 287 286 285 283 282 280 279 277 275 272 270 267 264
Height
10658 10658 10658 10658 10657 10656 10656 10657 10656 10656 10655 10654 10653 10651 10650 10649 10647 10646 10644 10643 10641 10641 10641 10640 10638 10637 10636 10634 10634 10633 10633 10634 10634 10634 10633 10632 10633 10634 10634 10634 10634 10634
10652 10651 10651 10651 10651 10650 10649 10649 10648 10648 10648 10647 10646 10645 10644 10643 10642 10640 10639 10637 10635 10634 10634 10633 10632 10631 10630 10628 10627 10626 10626 10627 10627 10627 10627 10626 10626 10627 10627 10627 10627 10627
10646 10645 10645 10645 10644 10644 10643 10642 10641 10640 10640 10640 10639 10638 10638 10637 10636 10635 10633 10632 10630 10629 10628 10626 10625 10624 10623 10622 10621 10620 10619 10620 10620 10620 10620 10619 10619 10620 10620 10620 10619 10620
10640 10640 10640 10639 10638 10637 10636 10635 10634 10633 10632 10632 10632 10631 10631 10630 10629 10628 10627 10626 10624 10623 10622 10620 10619 10618 10617 10616 10614 10613 10612 10612 10613 10613 10613 10612 10613 10613 10613 10613 10612 10612
10634 10633 10633 10633 10631 10630 10629 10628 10626 10625 10625 10625 10624 10624 10623 10623 10622 10621 10620 10620 10618 10617 10615 10614 10612 10611 10610 10609 10608 10606 10605 10605 10605 10606 10606 10605 10605 10606 10606 10606 10605 10605
10628 10627 10627 10626 10624 10623 10622 10620 10619 10618 10618 10617 10617 10616 10616 10615 10615 10613 10613 10612 10611 10610 10609 10607 10606 10604 10603 10602 10601 10600 10598 10598 10598 10598 10599 10598 10598 10598 10598 10599 10598 10597
10622 10621 10620 10619 10618 10616 10615 10613 10612 10611 10610 10610 10609 10609 10608 10608 10607 10606 10606 10605 10604 10603 10601 10600 10599 10597 10596 10595 10593 10592 10591 10590 10590 10590 10590 10590 10590 10589 10590 10591 10591 10590
10616 10615 10614 10612 10611 10609 10608 10606 10605 10604 10603 10602 10602 10601 10600 10599 10599 10599 10598 10598 10597 10595 10594 10593 10592 10590 10589 10587 10586 10584 10583 10583 10582 10582 10581 10581 10582 10581 10581 10582 10583 10582
10610 10609 10607 10606 10604 10602 10601 10599 10598 10597 10596 10596 10595 10593 10592 10592 10591 10590 10590 10589 10589 10588 10586 10585 10584 10583 10581 10580 10579 10577 10575 10575 10574 10574 10573 10573 10573 10573 10573 10574 10574 10574
10603 10602 10600 10599 10597 10595 10594 10592 10591 10591 10589 10588 10587 10586 10585 10584 10583 10582 10581 10580 10580 10579 10578 10577 10576 10575 10574 10572 10571 10569 10568 10566 10566 10566 10565 10565 10564 10564 10564 10565 10566 10565
10597 10595 10594 10592 10590 10589 10587 10586 10585 10584 10582 10581 10580 10579 10578 10577 10575 10574 10573 10572 10571 10571 10570 10569 10567 10566 10565 10564 10562 10561 10560 10558 10557 10556 10556 10556 10556 10555 10555 10555 10556 10556
10590 10589 10587 10585 10583 10582 10581 10580 10579 10577 10575 10574 10573 10572 10571 10569 10568 10566 10565 10564 10563 10562 10561 10560 10559 10557 10556 10555 10554 10552 10551 10550 10549 10548 10547 10547 10547 10546 10546 10546 10546 10547
10583 10581 10580 10578 10577 10576 10575 10573 10572 10570 10568 10566 10565 10564 10563 10562 10560 10559 10557 10556 10555 10553 10553 10551 10550 10549 10547 10546 10545 10543 10542 10541 10540 10539 10538 10538 10537 10537 10537 10536 10536 10537
10576 10574 10573 10572 10570 10569 10567 10566 10565 10562 10561 10559 10557 10556 10554 10553 10552 10550 10549 10548 10546 10545 10544 10542 10541 10540 10538 10536 10535 10534 10533 10532 10530 10529 10529 10528 10528 10528 10527 10527 10527 10527
10568 10567 10566 10565 10563 10562 10560 10558 10557 10555 10553 10552 10550 10548 10546 10544 10542 10541 10539 10538 10537 10536 10535 10534 10532 10531 10529 10528 10526 10524 10523 10522 10521 10520 10519 10519 10518 10518 10518 10518 10517 10517
10561 10559 10558 10557 10555 10554 10552 10551 10549 10547 10545 10544 10542 10540 10538 10536 10534 10532 10530 10529 10527 10526 10525 10524 10523 10522 10520 10519 10517 10515 10513 10512 10511 10510 10510 10509 10508 10507 10507 10507 10507 10507
10553 10552 10550 10549 10548 10546 10544 10542 10541 10539 10537 10535 10533 10532 10530 10528 10526 10524 10521 10519 10517 10516 10514 10513 10512 10511 10510 10509 10508 10506 10504 10502 10501 10499 10499 10498 10498 10497 10497 10496 10496 10497
10546 10544 10543 10541 10539 10538 10536 10534 10532 10530 10528 10526 10525 10523 10521 10519 10517 10515 10513 10510 10508 10506 10504 10502 10501 10500 10499 10498 10497 10496 10494 10493 10491 10489 10488 10487 10487 10486 10486 10485 10485 10485
10538 10537 10535 10533 10531 10530 10528 10526 10524 10522 10520 10518 10516 10514 10512 10510 10508 10506 10503 10501 10498 10496 10494 10492 10490 10488 10487 10486 10485 10484 10483 10482 10480 10479 10477 10476 10475 10474 10474 10474 10474 10473
10531 10529 10527 10525 10523 10522 10520 10518 10516 10514 10512 10510 10507 10505 10503 10500 10498 10496 10493 10491 10488 10486 10483 10481 10479 10477 10475 10473 10472 10470 10469 10469 10468 10467 10465 10464 10463 10462 10462 10462 10462 10462
10523 10521 10519 10518 10516 10514 10512 10510 10507 10505 10503 10501 10499 10496 10493 10491 10488 10485 10483 10480 10477 10475 10472 10470 10467 10465 10462 10460 10458 10456 10455 10454 10453 10453 10452 10451 10451 10450 10449 10449 10449 10449
10516 10514 10512 10509 10507 10505 10503 10501 10498 10496 10494 10492 10490 10487 10484 10481 10478 10475 10472 10469 10466 10463 10461 10458 10455 10452 10450 10447 10444 10442 10440 10439 10438 10437 10436 10436 10436 10436 10436 10436 10436 10436
10508 10506 10504 10501 10499 10497 10494 10492 10489 10487 10485 10483 10480 10477 10475 10471 10468 10464 10461 10457 10454 10451 10449 10446 10442 10439 10437 10434 10430 10427 10425 10424 10422 10421 10420 10419 10419 10420 10420 10421 10421 10422
10500 10498 10496 10493 10491 10488 10486 10483 10481 10478 10476 10473 10470 10467 10465 10461 10458 10454 10450 10446 10443 10439 10436 10433 10430 10426 10423 10420 10416 10412 10409 10407 10405 10403 10403 10402 10402 10402 10403 10404 10405 10406
10492 10490 10487 10485 10482 10480 10477 10474 10472 10469 10467 10464 10460 10457 10454 10451 10447 10443 10439 10435 10432 10428 10424 10420 10417 10413 10410 10406 10402 10398 10394 10391 10389 10387 10385 10385 10384 10384 10385 10386 10388 10390
10484 10482 10479 10476 10474 10471 10469 10466 10463 10460 10457 10454 10450 10447 10443 10440 10436 10433 10429 10424 10420 10416 10412 10408 10404 10400 10396 10392 10388 10384 10380 10376 10374 10371 10369 10368 10367 10367 10367 10368 10371 10373